Tracking 25710 objects as of 5-Jul-2022
HD Live streaming from Space Station
objects crossing your sky now

FENGYUN 1C DEB

Track FENGYUN 1C DEB now!
10-day predictions


NORAD ID: 32167
Int'l Code: 1999-025CTM
Perigee: 684.9 km
Apogee: 935.0 km
Inclination: 98.5 °
Period: 100.9 minutes
Semi major axis: 7180 km
RCS: 0.0085 m2 (small)
Launch date: May 10, 1999
Source: People's Republic of China (PRC)
Launch site: Taiyaun Space Center, China (TSC)

Note: This is SATELLITE DEBRIS
aabbcc
Your satellite tracking list
Your tracking list is empty




NASA's NSSDC Master Catalog

Two Line Element Set (TLE):
1 32167U 99025CTM 22181.25993021  .00000265  00000-0  10902-3 0  9997
2 32167  98.4650 196.9963 0174146 170.7824 189.6624 14.26694490446643
Source of the keplerian elements: AFSPC